Location: *
(50.8160°S, 176.0219°W)
Time: 03:00:59
(UTC+00:00)

Cosmos 1656 - Pass Details

Date: 19 May 2026
Orbit: 797 x 847 km, 71.1° (Epoch: 8 June)

Event Time Altitude Azimuth Distance (km) Brightness Sun altitude
Exits shadow 17:32:31 25° 239° (WSW) 1,642 4.7 -16.5°
Maximum altitude 17:35:05 38° 287° (WNW) 1,247 4.2 -16.1°
Drops below altitude 10° 17:40:07 10° 354° (N) 2,403 6.1 -15.4°
Sets 17:42:39 0° 1° (N) 3,319 7.0 -15.0°
